Regional Weather Roundup
Issued by NWS Portland, ME

Home | Current Version | Previous Version | Text Only | Print | Product List | Glossary On
Versions: 1 2 3 4 5 6 7 8 9 10 11 12 13 14 15 16 17 18 19 20 21 22 23 24 25 26 27 28 29 30 31 32 33 34 35 36 37 38 39 40 41 42 43 44 45 46 47 48 49 50
000
ASUS41 KGYX 301110
RWRGYX
WEATHER ROUNDUP FOR MAINE AND NEW HAMPSHIRE
NATIONAL WEATHER SERVICE GRAY ME
700 AM EDT SAT JUL 30 2016

MEZ002-005-006-010-012-015-018-020-021-024-026-027-029-301200-
MAINE

CITY           SKY/WX    TMP DP  RH WIND       PRES   REMARKS
PORTLAND       SUNNY     68  58  70 NW6       29.99R
SANFORD          N/A     65  61  87 CALM      30.01R
BAR HARBOR     SUNNY     64  63  96 N7        29.95S
WISCASSET      SUNNY     67  59  75 CALM      29.99R
ROCKLAND       SUNNY     64  60  87 NW5       29.97R
FRYEBURG       SUNNY     60  58  92 CALM      30.02R
LEWISTONAUBURN SUNNY     63  57  81 NW5       30.01R
AUGUSTA        SUNNY     65  56  72 NW6       30.00R
WATERVILLE     SUNNY     64  57  78 N5        29.97R
BANGOR         MOSUNNY   70  57  63 N7        29.98R
GREENVILLE       N/A     60  53  77 NW9       30.00R
MILLINOCKET    SUNNY     63  57  81 NW3       30.00R
HOULTON        MOSUNNY   61  57  87 N3        29.97R
PRESQUE ISLE   MOSUNNY   59  56  89 CALM      30.00R
FRENCHVILLE    SUNNY     58  52  80 NW7       29.98R
CARIBOU        SUNNY     62  54  74 NW6       29.98R
$$

NHZ002-005-008-009-011-012-014-301200-
NEW HAMPSHIRE

CITY           SKY/WX    TMP DP  RH WIND       PRES   REMARKS
PORTSMOUTH     PTSUNNY   68  63  86 NW3       29.99R
ROCHESTER      SUNNY     65  60  84 NW7       30.00R
NASHUA         PTSUNNY   65  61  87 CALM      30.02R
MANCHESTER     PTSUNNY   68  57  68 N6        30.00R
CONCORD        SUNNY     66  58  75 NW6       30.02R
LACONIA        SUNNY     63  57  81 CALM      30.03R
PLYMOUTH       FAIR      63  56  79 W5        30.03R
BERLIN         FOG       50  48  93 CALM      30.06R VSB 1/4
WHITEFIELD     PTSUNNY   53  50  89 CALM      30.07R FOG
JAFFREY        MOSUNNY   59  57  93 CALM      30.05R
KEENE          PTSUNNY   61  61 100 CALM      30.05R FOG
LEBANON        SUNNY     58  56  93 CALM      30.05R
MT WASHINGTON  MOSUNNY   43  37  81 NW25G31     N/A
$$

VTZ005-007-008-301200-
VERMONT

CITY           SKY/WX    TMP DP  RH WIND       PRES   REMARKS
ST JOHNSBURY     N/A     54  52  93 MISG      30.06R
MONTPELIER     FOG       54  54 100 CALM      30.10R VSB 1/4
BURLINGTON     FAIR      59  55  87 NE3       30.06R
$$

MAZ007-012-024-CTZ003-RIZ002-NYZ038-NYZ072-301200-
SOUTHERN NEW ENGLAND AND NY

CITY           SKY/WX    TMP DP  RH WIND       PRES   REMARKS
BOSTON         MOSUNNY   72  62  71 NW8       29.99R
WORCESTER      SUNNY     69  54  58 N8        30.03R
NANTUCKET      CLOUDY    72  68  87 N8        29.97R
PROVIDENCE     MOSUNNY   72  65  78 NW5       29.99R
HARTFORD       PTSUNNY   68  61  78 N6        30.01R
ALBANY         PTSUNNY   65  59  81 N3        30.03R
NEW YORK CITY  CLOUDY    75  71  87 E8        29.97R
$$

ANZ081-ANZ082-ANZ150-NHZ014-MEZ023>029-301200-
COASTAL MARINE OBSERVATIONS

STATION/POSITION TIME  TEMP    WIND        PRES    WAVE
                       AIR SEA DIR/SP/G            HT/PER
                 (UTC) (F)     (DEG/KT/KT) (MB)    (FT/S)
MOUNT DESERT ROC 1100   59     330/  4/  5 1014.4R
MATINICUS ROCK   1100   63     350/ 10/ 11 1014.2R
ISLE OF SHOALS   1100   67     320/  8/  9 1015.4R
JEFFREYS LEDGE   1008      69                N/A     1/14
CASHES LEDGE BUO 1050   70 72  340/ 14/ 16 1014.1R   1/13
GEORGES BANK BUO 1050   66 66              1012.2R   4/ 6
$$

.............KEY..............
   WCI - WIND CHILL
   TC  - TEMPERATURE IN CELSIUS
   VSB - VISIBILITY IN MILES
   HX  - HEAT INDEX
   FAIR- INDICATES FEW OR NO CLOUDS BELOW 12,000 FT, WITH NO
         SIGNIFICANT WEATHER AND/OR OBSTRUCTIONS TO VISIBILITY.






USA.gov is the U.S. government's official web portal to all federal, state and local government web resources and services.